Weather History for Hollywood, FL

Change the Weather History Date:

Monday, October 28, 2013

  Actual Average (KFLL) Record (KFLL)
Temperature  
Mean Temperature 86 °F 79 °F  
Max Temperature 100 °F 84 °F 92 °F (1925)
Min Temperature 72 °F 73 °F 49 °F (1957)
Degree Days  
Heating Degree Days 0 0  
Month to date heating degree days 0  
Since 1 July heating degree days 0  
Cooling Degree Days 21 14  
Month to date cooling degree days 442  
Year to date cooling degree days 4154  
Growing Degree Days 36 (Base 50)    
Moisture  
Dew Point 63 °F    
Average Humidity 50    
Maximum Humidity 78    
Minimum Humidity 29    
Precipitation  
Precipitation 0.00 in 0.16 in 2.50 in (1945)
Month to date precipitation 6.33  
Year to date precipitation 55.99  
Snow  
Snow 0.00 in - - ()
Month to date snowfall  
Since 1 July snowfall  
Since 1 September snowfall  
Snow Depth -    
Sea Level Pressure  
Sea Level Pressure 30.12 in    
Wind  
Wind Speed 6 mph (NE)    
Max Wind Speed 13 mph    
Max Gust Speed 20 mph    
Visibility 10 miles    
Events      
T = Trace of Precipitation, MM = Missing Value Source: NWS Daily Summary

Daily Weather History Graph

Daily Weather History Graph

Search for Another Location

Airport:

Trip Planner

Search our weather history database for the weather conditions in past years. The results will help you decide how hot, cold, wet, or windy it might be!

Date:

Astronomy

Oct. 28, 2013 Rise Set
Actual Time 7:27 AM EDT 6:41 PM EDT
Civil Twilight 7:03 AM EDT 7:05 PM EDT
Nautical Twilight 6:36 AM EDT 7:32 PM EDT
Astronomical Twilight 6:09 AM EDT 7:59 PM EDT
Moon 1:52 AM EDT (10/28) 2:52 PM EDT (10/28)
Length of Visible Light 12h 01m
Length of Day
11h 14m
Waning Crescent, 34% of the Moon is Illuminated
Oct 28
Waning Crescent
Nov 3
New
Nov 10
First Quarter
Nov 17
Full
Nov 25
Last Quarter

Hourly Weather History & Observations

Time (EDT) Temp. Heat Index Dew Point Humidity Pressure Visibility Wind Dir Wind Speed Gust Speed Precip Events Conditions
12:53 AM 81.0 °F 81.7 °F 61.0 °F 50% 30.11 in 10.0 mi ENE 4.6 mph - N/A   Clear
1:53 AM 79.0 °F - 61.0 °F 54% 30.09 in 10.0 mi ENE 3.5 mph - N/A   Partly Cloudy
2:53 AM 78.1 °F - 61.0 °F 56% 30.08 in 10.0 mi ENE 3.5 mph - N/A   Clear
3:53 AM 73.9 °F - 61.0 °F 64% 30.07 in 10.0 mi NE 3.5 mph - N/A   Clear
4:53 AM 73.0 °F - 62.1 °F 68% 30.08 in 10.0 mi NE 3.5 mph - N/A   Clear
5:53 AM 72.0 °F - 62.1 °F 71% 30.08 in 10.0 mi North 3.5 mph - N/A   Clear
6:53 AM 72.0 °F - 64.0 °F 76% 30.10 in 10.0 mi Calm Calm - N/A   Mostly Cloudy
7:53 AM 72.0 °F - 64.9 °F 78% 30.12 in 10.0 mi Calm Calm - N/A   Mostly Cloudy
8:53 AM 81.0 °F 83.0 °F 66.0 °F 60% 30.13 in 10.0 mi North 3.5 mph - N/A   Scattered Clouds
9:53 AM 95.0 °F 97.9 °F 66.0 °F 38% 30.14 in 10.0 mi ENE 10.4 mph - N/A   Clear
10:53 AM 96.1 °F 98.8 °F 64.9 °F 36% 30.16 in 10.0 mi NE 11.5 mph - N/A   Scattered Clouds
11:53 AM 97.0 °F 99.9 °F 64.9 °F 35% 30.15 in 10.0 mi ENE 11.5 mph - N/A   Scattered Clouds
12:53 PM 100.0 °F 101.8 °F 62.1 °F 29% 30.13 in 10.0 mi NE 8.1 mph - N/A   Partly Cloudy
1:53 PM 84.0 °F 84.9 °F 63.0 °F 49% 30.12 in 10.0 mi NE 9.2 mph 19.6 mph N/A   Partly Cloudy
2:53 PM 84.0 °F 84.5 °F 62.1 °F 47% 30.10 in 10.0 mi NE 12.7 mph - N/A   Clear
3:53 PM 93.0 °F 93.0 °F 61.0 °F 34% 30.09 in 10.0 mi NE 8.1 mph - N/A   Clear
4:53 PM 95.0 °F 94.4 °F 59.0 °F 30% 30.10 in 10.0 mi ENE 10.4 mph - N/A   Clear
5:53 PM 91.0 °F 90.5 °F 60.1 °F 35% 30.12 in 10.0 mi NE 10.4 mph - N/A   Clear
6:53 PM 89.1 °F 89.3 °F 62.1 °F 40% 30.13 in 10.0 mi NE 9.2 mph - N/A   Clear
7:53 PM 88.0 °F 88.7 °F 63.0 °F 43% 30.13 in 10.0 mi ENE 6.9 mph - N/A   Clear
8:53 PM 87.1 °F 88.3 °F 64.0 °F 46% 30.15 in 10.0 mi NE 8.1 mph - N/A   Clear
9:53 PM 86.0 °F 87.3 °F 64.0 °F 48% 30.16 in 10.0 mi NE 6.9 mph - N/A   Clear
10:53 PM 84.9 °F 86.1 °F 64.0 °F 49% 30.16 in 10.0 mi NE 4.6 mph - N/A   Clear
11:53 PM 82.0 °F 83.4 °F 64.0 °F 54% 30.15 in 10.0 mi ENE 3.5 mph - N/A   Clear